Weather History for Newcastle, WY

Change the Weather History Date:

Saturday, November 9, 2013

  Actual Average (KCUT) Record (KCUT)
Temperature  
Mean Temperature 37 °F 34 °F  
Max Temperature 44 °F 45 °F 69 °F (1978)
Min Temperature 30 °F 24 °F -15 °F (1986)
Degree Days  
Heating Degree Days 28 30  
Month to date heating degree days 259  
Since 1 July heating degree days 1438  
Cooling Degree Days 0 0  
Month to date cooling degree days 0  
Year to date cooling degree days 177  
Moisture  
Dew Point 25 °F    
Average Humidity 67    
Maximum Humidity 87    
Minimum Humidity 42    
Precipitation  
Precipitation 0.00 in 0.02 in 0.24 in (1946)
Month to date precipitation 0.21  
Year to date precipitation 18.17  
Sea Level Pressure  
Sea Level Pressure 30.18 in    
Wind  
Wind Speed 4 mph (North)    
Max Wind Speed 15 mph    
Max Gust Speed 21 mph    
Visibility 10 miles    
Events      
T = Trace of Precipitation, MM = Missing Value Source: NWS Daily Summary

Daily Weather History Graph

Daily Weather History Graph

Search for Another Location

Airport:

Trip Planner

Search our weather history database for the weather conditions in past years. The results will help you decide how hot, cold, wet, or windy it might be!

Date:

Astronomy

Nov. 09, 2013 Rise Set
Actual Time 6:44 AM MST 4:37 PM MST
Civil Twilight 6:13 AM MST 5:07 PM MST
Nautical Twilight 5:39 AM MST 5:42 PM MST
Astronomical Twilight 5:05 AM MST 6:16 PM MST
Moon 12:20 PM MST (11/9) 11:13 PM MST (11/9)
Length of Visible Light 10h 54m
Length of Day
9h 52m
Waxing Crescent, 45% of the Moon is Illuminated
Nov 9
Waxing Crescent
Nov 9
First Quarter
Nov 17
Full
Nov 25
Last Quarter
Dec 2
New

Hourly Weather History & Observations

Time (MST) Temp. Windchill Dew Point Humidity Pressure Visibility Wind Dir Wind Speed Gust Speed Precip Events Conditions
12:15 AM 33.8 °F 28.6 °F 26.6 °F 75% 30.02 in 10.0 mi NW 5.8 mph - N/A   Clear
12:35 AM 33.8 °F - 26.6 °F 75% 30.02 in 10.0 mi Calm Calm - N/A   Clear
12:55 AM 33.8 °F 30.8 °F 26.6 °F 75% 30.02 in 10.0 mi North 3.5 mph - N/A   Scattered Clouds
1:15 AM 33.8 °F - 26.6 °F 75% 30.03 in 10.0 mi Calm Calm - N/A   Scattered Clouds
1:35 AM 32.0 °F - 26.6 °F 80% 30.04 in 10.0 mi Calm Calm - N/A   Scattered Clouds
1:55 AM 33.8 °F - 26.6 °F 75% 30.04 in 10.0 mi Calm Calm - N/A   Scattered Clouds
2:15 AM 32.0 °F 26.4 °F 26.6 °F 80% 30.06 in 10.0 mi SSE 5.8 mph - N/A   Scattered Clouds
2:35 AM 32.0 °F 27.5 °F 26.6 °F 80% 30.06 in 10.0 mi ESE 4.6 mph - N/A   Scattered Clouds
2:55 AM 32.0 °F - 26.6 °F 80% 30.06 in 10.0 mi Calm Calm - N/A   Scattered Clouds
3:15 AM 32.0 °F - 26.6 °F 80% 30.07 in 10.0 mi Calm Calm - N/A   Clear
3:35 AM 32.0 °F - 26.6 °F 80% 30.08 in 10.0 mi Calm Calm - N/A   Scattered Clouds
3:55 AM 32.0 °F - 26.6 °F 80% 30.09 in 10.0 mi Calm Calm - N/A   Scattered Clouds
4:15 AM 32.0 °F - 26.6 °F 80% 30.09 in 10.0 mi Calm Calm - N/A   Scattered Clouds
4:35 AM 32.0 °F - 26.6 °F 80% 30.10 in 10.0 mi Calm Calm - N/A   Clear
4:55 AM 32.0 °F - 26.6 °F 80% 30.10 in 10.0 mi Calm Calm - N/A   Scattered Clouds
5:15 AM 32.0 °F - 28.4 °F 87% 30.11 in 10.0 mi Calm Calm - N/A   Scattered Clouds
5:35 AM 32.0 °F - 26.6 °F 80% 30.12 in 10.0 mi Calm Calm - N/A   Scattered Clouds
5:55 AM 32.0 °F - 26.6 °F 80% 30.13 in 10.0 mi Calm Calm - N/A   Scattered Clouds
6:15 AM 32.0 °F - 26.6 °F 80% 30.12 in 10.0 mi Calm Calm - N/A   Scattered Clouds
6:35 AM 32.0 °F - 26.6 °F 80% 30.14 in 10.0 mi Calm Calm - N/A   Scattered Clouds
6:55 AM 30.2 °F - 26.6 °F 86% 30.15 in 10.0 mi Calm Calm - N/A   Scattered Clouds
7:15 AM 32.0 °F - 26.6 °F 80% 30.16 in 10.0 mi Calm Calm - N/A   Scattered Clouds
7:35 AM 32.0 °F - 26.6 °F 80% 30.17 in 10.0 mi Calm Calm - N/A   Scattered Clouds
7:55 AM 32.0 °F 27.5 °F 26.6 °F 80% 30.17 in 10.0 mi SSE 4.6 mph - N/A   Scattered Clouds
8:15 AM 32.0 °F - 26.6 °F 80% 30.19 in 10.0 mi Calm Calm - N/A   Clear
8:35 AM 33.8 °F - 26.6 °F 75% 30.19 in 10.0 mi Calm Calm - N/A   Clear
8:55 AM 37.4 °F 28.5 °F 26.6 °F 65% 30.19 in 10.0 mi NNW 15.0 mph - N/A   Clear
9:15 AM 41.0 °F 33.9 °F 24.8 °F 53% 30.19 in 10.0 mi NNW 12.7 mph 18.4 mph N/A   Clear
9:35 AM 41.0 °F 33.9 °F 23.0 °F 49% 30.20 in 10.0 mi NNW 12.7 mph 20.7 mph N/A   Clear
9:55 AM 42.8 °F 35.4 °F 23.0 °F 46% 30.20 in 10.0 mi NNW 15.0 mph 19.6 mph N/A   Clear
10:15 AM 42.8 °F 35.8 °F 23.0 °F 46% 30.21 in 10.0 mi NNW 13.8 mph 19.6 mph N/A   Clear
10:35 AM 42.8 °F 36.2 °F 23.0 °F 46% 30.22 in 10.0 mi NNW 12.7 mph - N/A   Clear
10:55 AM 42.8 °F 37.5 °F 23.0 °F 46% 30.22 in 10.0 mi NW 9.2 mph - N/A   Clear
11:15 AM 42.8 °F 38.6 °F 21.2 °F 42% 30.21 in 10.0 mi NNW 6.9 mph - N/A   Clear
11:35 AM 42.8 °F 37.5 °F 21.2 °F 42% 30.21 in 10.0 mi NW 9.2 mph - N/A   Clear
11:55 AM 42.8 °F 36.6 °F 21.2 °F 42% 30.21 in 10.0 mi NW 11.5 mph - N/A   Clear
12:15 PM 44.6 °F 38.8 °F 23.0 °F 43% 30.21 in 10.0 mi NW 11.5 mph 17.3 mph N/A   Clear
12:35 PM 42.8 °F 37.5 °F 21.2 °F 42% 30.21 in 10.0 mi NW 9.2 mph 17.3 mph N/A   Clear
12:55 PM 42.8 °F 36.6 °F 21.2 °F 42% 30.21 in 10.0 mi NNW 11.5 mph 17.3 mph N/A   Clear
1:15 PM 42.8 °F 38.0 °F 21.2 °F 42% 30.21 in 10.0 mi NNW 8.1 mph 16.1 mph N/A   Clear
1:35 PM 42.8 °F 37.5 °F 23.0 °F 46% 30.21 in 10.0 mi NNW 9.2 mph 16.1 mph N/A   Clear
1:55 PM 42.8 °F 38.0 °F 23.0 °F 46% 30.21 in 10.0 mi WNW 8.1 mph - N/A   Clear
2:15 PM 41.0 °F 35.8 °F 23.0 °F 49% 30.22 in 10.0 mi WNW 8.1 mph - N/A   Clear
2:35 PM 41.0 °F 35.8 °F 23.0 °F 49% 30.22 in 10.0 mi NW 8.1 mph - N/A   Clear
2:55 PM 42.8 °F 38.0 °F 23.0 °F 46% 30.23 in 10.0 mi WNW 8.1 mph - N/A   Clear
3:15 PM 41.0 °F 35.8 °F 23.0 °F 49% 30.23 in 10.0 mi NW 8.1 mph - N/A   Scattered Clouds
3:35 PM 41.0 °F 37.1 °F 23.0 °F 49% 30.23 in 10.0 mi WNW 5.8 mph - N/A   Clear
3:55 PM 41.0 °F 38.0 °F 23.0 °F 49% 30.23 in 10.0 mi NNW 4.6 mph - N/A   Clear
4:15 PM 37.4 °F 34.9 °F 23.0 °F 56% 30.24 in 10.0 mi NNW 3.5 mph - N/A   Clear
4:35 PM 37.4 °F 34.9 °F 23.0 °F 56% 30.24 in 10.0 mi NW 3.5 mph - N/A   Clear
4:55 PM 37.4 °F 33.8 °F 23.0 °F 56% 30.24 in 10.0 mi NNE 4.6 mph - N/A   Clear
5:15 PM 35.6 °F 30.7 °F 24.8 °F 65% 30.24 in 10.0 mi North 5.8 mph - N/A   Clear
5:35 PM 33.8 °F - 24.8 °F 70% 30.25 in 10.0 mi Calm Calm - N/A   Clear
5:55 PM 32.0 °F 28.7 °F 24.8 °F 75% 30.25 in 10.0 mi NNE 3.5 mph - N/A   Clear
6:15 PM 32.0 °F 27.5 °F 26.6 °F 80% 30.25 in 10.0 mi NNE 4.6 mph - N/A   Clear
6:35 PM 32.0 °F 27.5 °F 26.6 °F 80% 30.25 in 10.0 mi NNE 4.6 mph - N/A   Clear
6:55 PM 33.8 °F - 23.0 °F 65% 30.25 in 10.0 mi Calm Calm - N/A   Clear
7:35 PM 32.0 °F - 23.0 °F 69% 30.26 in 10.0 mi Calm Calm - N/A   Clear
7:55 PM 30.2 °F 23.4 °F 23.0 °F 75% 30.26 in 10.0 mi ESE 6.9 mph - N/A   Clear
8:15 PM 33.8 °F 29.6 °F 26.6 °F 75% 30.27 in 10.0 mi East 4.6 mph - N/A   Clear
8:35 PM 33.8 °F 27.0 °F 28.4 °F 81% 30.26 in 10.0 mi SE 8.1 mph - N/A   Scattered Clouds
8:55 PM 35.6 °F 29.9 °F 28.4 °F 75% 30.27 in 10.0 mi ESE 6.9 mph - N/A   Scattered Clouds
9:15 PM 35.6 °F 28.6 °F 28.4 °F 75% 30.26 in 10.0 mi ESE 9.2 mph - N/A   Scattered Clouds
9:35 PM 37.4 °F 30.8 °F 28.4 °F 70% 30.26 in 10.0 mi ESE 9.2 mph - N/A   Scattered Clouds
9:55 PM 35.6 °F 29.2 °F 28.4 °F 75% 30.26 in 10.0 mi SE 8.1 mph - N/A   Scattered Clouds
10:15 PM 32.0 °F 26.4 °F 26.6 °F 80% 30.26 in 10.0 mi SE 5.8 mph - N/A   Clear
10:35 PM 32.0 °F 25.6 °F 26.6 °F 80% 30.25 in 10.0 mi SE 6.9 mph - N/A   Clear
10:55 PM 32.0 °F 25.6 °F 26.6 °F 80% 30.25 in 10.0 mi SE 6.9 mph - N/A   Clear
11:15 PM 33.8 °F 27.0 °F 26.6 °F 75% 30.24 in 10.0 mi SE 8.1 mph - N/A   Clear
11:35 PM 33.8 °F 26.4 °F 26.6 °F 75% 30.24 in 10.0 mi SE 9.2 mph - N/A   Clear
11:55 PM 33.8 °F 27.0 °F 26.6 °F 75% 30.24 in 10.0 mi ESE 8.1 mph - N/A   Clear